Location: ??
(34.9170°N, 135.5016°E)
Time: 00:54:03
(UTC+00:00)

RS-15 - Pass Details

Date: 24 April 2021
Orbit: 1888 x 2157 km, 64.8° (Epoch: 12 May)

Event Time Altitude Azimuth Distance (km) Brightness Sun altitude
Rises 14:53:21 0° 326° (NW) 5,482 11.0 -42.0°
Reaches altitude 10° 14:58:40 10° 345° (NNW) 4,532 10.5 -42.0°
Maximum altitude 15:06:01 18° 25° (NNE) 3,981 10.1 -41.9°
Drops below altitude 10° 15:13:29 10° 64° (ENE) 4,642 10.2 -41.8°
Sets 15:18:57 0° 83° (E) 5,668 10.6 -41.7°
